Tracking 31027 objects as of 19-Jul-2025
HD Live streaming from Space Station
objects crossing your sky now

STARLINK-31997

Track STARLINK-31997 now!
10-day predictions
STARLINK-31997 is classified as:


NORAD ID: 60288
Int'l Code: 2024-132L
Perigee: 481.6 km
Apogee: 483.2 km
Inclination: 53.2 °
Period: 94.1 minutes
Semi major axis: 6853 km
RCS: Unknown
Launch date: July 28, 2024
Source: United States (US)
Launch site: AIR FORCE EASTERN TEST RANGE (AFETR)
Your satellite tracking list
STARLINK-30236
Track 1 satellite(s)




NASA's NSSDC Master Catalog

Two Line Element Set (TLE):
1 60288U 24132L   25199.33123195 -.00001075  00000-0 -24180-4 0  9993
2 60288  53.1606  60.6742 0001151  95.5621 264.5511 15.30186754 55686
Source of the keplerian elements: AFSPC